Hourly Weather Chanal

Today, 19 June, Saturday

Time Temperature Precipitation Wind Pressure Humidity
00:00 +15°C° 1.6 mm 0 mps 608 mmHg 97%
01:00 +14°C° 2.4 mm 0 mps 608 mmHg 97%
02:00 +15°C° 2.4 mm 1 mps 607 mmHg 98%
03:00 +15°C° 2.4 mm 1 mps 607 mmHg 98%
04:00 +15°C° 0.1 mm 1 mps 607 mmHg 97%
05:00 +15°C° 0.1 mm 1 mps 607 mmHg 97%
06:00 +14°C° 0.1 mm 1 mps 607 mmHg 96%
07:00 +16°C° 0 mm 1 mps 608 mmHg 88%
08:00 +17°C° 0 mm 0 mps 609 mmHg 81%
09:00 +19°C° 0 mm 0 mps 610 mmHg 73%
10:00 +22°C° 0 mm 1 mps 610 mmHg 67%
11:00 +23°C° 0 mm 1 mps 610 mmHg 62%
12:00 +24°C° 0 mm 1 mps 610 mmHg 56%
13:00 +24°C° 0.2 mm 1 mps 610 mmHg 59%
14:00 +24°C° 0.2 mm 1 mps 609 mmHg 62%
15:00 +24°C° 0.2 mm 1 mps 609 mmHg 66%
16:00 +22°C° 0.4 mm 1 mps 608 mmHg 74%
17:00 +21°C° 0.4 mm 1 mps 608 mmHg 83%
18:00 +18°C° 0.4 mm 0 mps 608 mmHg 91%
19:00 +19°C° 0.1 mm 1 mps 608 mmHg 93%
20:00 +18°C° 0.1 mm 1 mps 608 mmHg 95%
21:00 +16°C° 0.1 mm 1 mps 608 mmHg 96%
22:00 +16°C° 0 mm 1 mps 608 mmHg 96%
23:00 +15°C° 0 mm 1 mps 608 mmHg 96%

Tomorrow, 20 June, Sunday

Time Temperature Precipitation Wind Pressure Humidity
00:00 +15°C° 0 mm 1 mps 608 mmHg 96%
01:00 +15°C° 0 mm 1 mps 608 mmHg 96%
02:00 +15°C° 0 mm 1 mps 607 mmHg 96%
03:00 +15°C° 0 mm 1 mps 607 mmHg 97%
04:00 +14°C° 0 mm 1 mps 607 mmHg 96%
05:00 +14°C° 0 mm 1 mps 607 mmHg 96%
06:00 +14°C° 0 mm 1 mps 607 mmHg 95%
07:00 +18°C° 0 mm 1 mps 608 mmHg 86%
08:00 +20°C° 0 mm 1 mps 609 mmHg 76%
09:00 +20°C° 0 mm 0 mps 610 mmHg 66%
10:00 +23°C° 0.1 mm 1 mps 610 mmHg 64%
11:00 +24°C° 0.1 mm 1 mps 610 mmHg 61%
12:00 +25°C° 0.1 mm 1 mps 610 mmHg 59%
13:00 +24°C° 1 mm 1 mps 609 mmHg 68%
14:00 +22°C° 1 mm 1 mps 609 mmHg 77%
15:00 +21°C° 1 mm 1 mps 608 mmHg 87%
16:00 +18°C° 1.8 mm 0 mps 608 mmHg 89%
17:00 +17°C° 1.8 mm 0 mps 608 mmHg 92%
18:00 +17°C° 1.8 mm 0 mps 607 mmHg 95%
19:00 +16°C° 0.8 mm 0 mps 608 mmHg 95%
20:00 +16°C° 0.8 mm 1 mps 608 mmHg 95%
21:00 +16°C° 0.8 mm 1 mps 608 mmHg 95%
22:00 +16°C° 0.4 mm 1 mps 608 mmHg 95%
23:00 +16°C° 0.4 mm 1 mps 608 mmHg 95%

Day after tomorrow, 21 June, Monday

Time Temperature Precipitation Wind Pressure Humidity
00:00 +16°C° 0.4 mm 1 mps 608 mmHg 95%
01:00 +15°C° 0.3 mm 1 mps 608 mmHg 96%
02:00 +15°C° 0.3 mm 1 mps 607 mmHg 96%
03:00 +15°C° 0.3 mm 1 mps 607 mmHg 97%
04:00 +15°C° 0.6 mm 1 mps 607 mmHg 97%
05:00 +15°C° 0.6 mm 1 mps 607 mmHg 97%
06:00 +15°C° 0.6 mm 1 mps 607 mmHg 97%
07:00 +18°C° 0.2 mm 1 mps 608 mmHg 92%
08:00 +19°C° 0.2 mm 1 mps 608 mmHg 88%
09:00 +18°C° 0.2 mm 0 mps 609 mmHg 84%
10:00 +19°C° 0.5 mm 0 mps 609 mmHg 81%
11:00 +20°C° 0.5 mm 0 mps 609 mmHg 78%
12:00 +21°C° 0.5 mm 0 mps 609 mmHg 75%
13:00 +20°C° 1.5 mm 0 mps 609 mmHg 80%
14:00 +19°C° 1.5 mm 0 mps 608 mmHg 85%
15:00 +18°C° 1.5 mm 0 mps 607 mmHg 90%
16:00 +17°C° 2.7 mm 0 mps 607 mmHg 92%
17:00 +17°C° 2.7 mm 0 mps 607 mmHg 94%
18:00 +16°C° 2.7 mm 0 mps 607 mmHg 96%
19:00 +15°C° 0.4 mm 0 mps 607 mmHg 96%
20:00 +16°C° 0.4 mm 1 mps 607 mmHg 96%
21:00 +15°C° 0.4 mm 1 mps 607 mmHg 95%
22:00 +15°C° 0.1 mm 1 mps 607 mmHg 95%
23:00 +15°C° 0.1 mm 1 mps 607 mmHg 95%

22 June, Tuesday

Time Temperature Precipitation Wind Pressure Humidity
00:00 +15°C° 0.1 mm 1 mps 607 mmHg 95%
01:00 +15°C° 0 mm 1 mps 607 mmHg 95%
02:00 +15°C° 0 mm 1 mps 607 mmHg 95%
03:00 +14°C° 0 mm 1 mps 606 mmHg 95%
04:00 +14°C° 0 mm 1 mps 606 mmHg 95%
05:00 +14°C° 0 mm 1 mps 606 mmHg 95%
06:00 +14°C° 0 mm 1 mps 607 mmHg 95%
07:00 +18°C° 0.1 mm 1 mps 608 mmHg 88%
08:00 +20°C° 0.1 mm 1 mps 608 mmHg 80%
09:00 +20°C° 0.1 mm 0 mps 609 mmHg 73%
10:00 +21°C° 0.3 mm 0 mps 609 mmHg 70%
11:00 +24°C° 0.3 mm 1 mps 609 mmHg 67%
12:00 +25°C° 0.3 mm 1 mps 609 mmHg 64%
13:00 +23°C° 1.4 mm 1 mps 609 mmHg 72%
14:00 +22°C° 1.4 mm 1 mps 608 mmHg 81%
15:00 +18°C° 1.4 mm 0 mps 607 mmHg 90%
16:00 +18°C° 2.7 mm 0 mps 607 mmHg 92%
17:00 +17°C° 2.7 mm 0 mps 607 mmHg 93%
18:00 +16°C° 2.7 mm 0 mps 607 mmHg 95%
19:00 +18°C° 3.3 mm 1 mps 607 mmHg 96%
20:00 +16°C° 3.3 mm 1 mps 607 mmHg 97%
21:00 +15°C° 3.3 mm 1 mps 608 mmHg 98%
22:00 +15°C° 1 mm 1 mps 607 mmHg 97%
23:00 +15°C° 1 mm 1 mps 607 mmHg 97%

23 June, Wednesday

Time Temperature Precipitation Wind Pressure Humidity
00:00 +15°C° 1 mm 1 mps 607 mmHg 97%
01:00 +15°C° 0.5 mm 1 mps 607 mmHg 96%
02:00 +15°C° 0.5 mm 1 mps 607 mmHg 96%
03:00 +15°C° 0.5 mm 1 mps 606 mmHg 96%
04:00 +15°C° 0.1 mm 1 mps 606 mmHg 95%
05:00 +14°C° 0.1 mm 0 mps 607 mmHg 95%
06:00 +14°C° 0.1 mm 0 mps 607 mmHg 95%
07:00 +15°C° 0 mm 0 mps 608 mmHg 89%
08:00 +17°C° 0 mm 0 mps 608 mmHg 83%
09:00 +19°C° 0 mm 0 mps 609 mmHg 77%
10:00 +21°C° 0.4 mm 1 mps 609 mmHg 76%
11:00 +22°C° 0.4 mm 1 mps 609 mmHg 76%
12:00 +22°C° 0.4 mm 1 mps 609 mmHg 76%
13:00 +21°C° 1.3 mm 1 mps 609 mmHg 81%
14:00 +21°C° 1.3 mm 1 mps 608 mmHg 87%
15:00 +20°C° 1.3 mm 1 mps 608 mmHg 92%
16:00 +20°C° 1.6 mm 1 mps 608 mmHg 93%
17:00 +19°C° 1.6 mm 1 mps 607 mmHg 95%
18:00 +16°C° 1.6 mm 0 mps 607 mmHg 96%
19:00 +15°C° 0.9 mm 0 mps 607 mmHg 97%
20:00 +15°C° 0.9 mm 0 mps 607 mmHg 97%
21:00 +15°C° 0.9 mm 1 mps 608 mmHg 97%
22:00 +14°C° 0.3 mm 0 mps 608 mmHg 97%
23:00 +14°C° 0.3 mm 0 mps 608 mmHg 97%

24 June, Thursday

Time Temperature Precipitation Wind Pressure Humidity
00:00 +14°C° 0.3 mm 0 mps 608 mmHg 97%
01:00 +14°C° 0.7 mm 0 mps 607 mmHg 97%
02:00 +15°C° 0.7 mm 1 mps 607 mmHg 98%
03:00 +15°C° 0.7 mm 1 mps 607 mmHg 99%
04:00 +15°C° 0.7 mm 1 mps 607 mmHg 98%
05:00 +15°C° 0.7 mm 1 mps 607 mmHg 98%
06:00 +15°C° 0.7 mm 1 mps 607 mmHg 98%
07:00 +16°C° 0 mm 1 mps 608 mmHg 91%
08:00 +18°C° 0 mm 1 mps 608 mmHg 84%
09:00 +20°C° 0 mm 1 mps 609 mmHg 78%
10:00 +21°C° 0.2 mm 1 mps 609 mmHg 74%
11:00 +21°C° 0.2 mm 2 mps 609 mmHg 70%
12:00 +23°C° 0.2 mm 2 mps 609 mmHg 66%
13:00 +21°C° 0.8 mm 2 mps 608 mmHg 73%
14:00 +21°C° 0.8 mm 1 mps 608 mmHg 81%
15:00 +20°C° 0.8 mm 1 mps 607 mmHg 88%
16:00 +19°C° 1 mm 1 mps 607 mmHg 91%
17:00 +18°C° 1 mm 1 mps 607 mmHg 94%
18:00 +16°C° 1 mm 1 mps 607 mmHg 96%
19:00 +16°C° 0.2 mm 1 mps 608 mmHg 97%
20:00 +15°C° 0.2 mm 1 mps 608 mmHg 97%
21:00 +14°C° 0.2 mm 1 mps 608 mmHg 97%
22:00 +14°C° 0 mm 1 mps 608 mmHg 97%
23:00 +14°C° 0 mm 1 mps 608 mmHg 96%
Show more

We Need Your Consent

Meteoprog and our Service Providers may store and access personal data such as cookies, device identifiers or other similar technologies on your device and process such data to personalise content and ads, as well as provide social media features and to analyse the traffic.

  • Store and/or access information on your device

    Cookies, device identifiers or other information can be stored or accessed on your device for the purposes indicated above.

  • Personalised ads and content, ad and content measurement, audience insights, and products development

    Ads and content can be personalised based on a profile. More data can be added to better personalise ads and content. Ad and content performance can be measured. Insights about the audience who saw the ads and content can be derived. Such data can be used to develop or improve user’s experience, systems and software.

By clicking ‘I Agree’ you will allow the use of indicated cookies, device identifiers, web beacons or other similar technologies. Your settings can be changed in the browser on your device.

For certain purposes, legitimate interests may be relied on, rather than consent. You can read more about this in our Privacy and Cookie Policy.